Weather History for Wellsville, NY

Change the Weather History Date:

Friday, March 9, 2012

  Actual Average (KBFD) Record (KBFD)
Temperature  
Mean Temperature 26 °F 29 °F  
Max Temperature 33 °F 39 °F 70 °F (2000)
Min Temperature 19 °F 19 °F -7 °F (1960)
Degree Days  
Heating Degree Days 39 30  
Month to date heating degree days 285  
Since 1 July heating degree days 5855  
Cooling Degree Days 0 0  
Month to date cooling degree days 0  
Year to date cooling degree days 0  
Moisture  
Dew Point 19 °F    
Average Humidity 73    
Maximum Humidity 87    
Minimum Humidity 52    
Precipitation  
Precipitation 0.01 in 0.10 in 0.84 in (1994)
Month to date precipitation 0.89  
Year to date precipitation 6.53  
Sea Level Pressure  
Sea Level Pressure 30.16 in    
Wind  
Wind Speed 18 mph (WNW)    
Max Wind Speed 30 mph    
Max Gust Speed 45 mph    
Visibility 5 miles    
Events Snow    
T = Trace of Precipitation, MM = Missing Value Source: NWS Daily Summary

Daily Weather History Graph

Daily Weather History Graph

Search for Another Location

Airport:

Trip Planner

Search our weather history database for the weather conditions in past years. The results will help you decide how hot, cold, wet, or windy it might be!

Date:

Astronomy

Mar. 09, 2012 Rise Set
Actual Time 6:33 AM EST 6:12 PM EST
Civil Twilight 6:05 AM EST 6:39 PM EST
Nautical Twilight 5:32 AM EST 7:12 PM EST
Astronomical Twilight 5:00 AM EST 7:45 PM EST
Moon 8:12 PM EST (3/9) 6:48 AM EST (3/9)
Length of Visible Light 12h 34m
Length of Day
11h 38m
Full, 98% of the Moon is Illuminated
Mar 9
Full
Mar 14
Last Quarter
Mar 22
New
Mar 30
First Quarter
Apr 6
Full

Hourly Weather History & Observations

Time (EST) Temp. Windchill Dew Point Humidity Pressure Visibility Wind Dir Wind Speed Gust Speed Precip Events Conditions
12:03 AM 32.0 °F 20.8 °F 28.4 °F 87% 29.98 in 3.0 mi NW 17.3 mph 27.6 mph 0.00 in Snow Light Snow
12:44 AM 30.2 °F 19.3 °F 26.6 °F 86% 30.00 in 8.0 mi NW 15.0 mph 21.9 mph 0.01 in Snow Light Snow
12:56 AM 30.0 °F 17.9 °F 25.0 °F 82% 30.04 in 9.0 mi NW 18.4 mph 25.3 mph 0.01 in   Overcast
1:56 AM 30.0 °F 16.9 °F 23.0 °F 75% 30.06 in 10.0 mi WNW 21.9 mph 27.6 mph N/A   Overcast
2:16 AM 28.4 °F 18.5 °F 23.0 °F 80% 30.02 in 10.0 mi WNW 11.5 mph - N/A   Overcast
2:56 AM 28.9 °F 16.1 °F 21.9 °F 75% 30.06 in 10.0 mi WNW 19.6 mph 29.9 mph N/A   Mostly Cloudy
3:56 AM 27.0 °F 14.3 °F 19.0 °F 72% 30.09 in 10.0 mi WNW 17.3 mph 27.6 mph N/A   Clear
4:56 AM 26.1 °F 14.0 °F 19.0 °F 75% 30.11 in 10.0 mi WNW 15.0 mph - N/A   Partly Cloudy
5:56 AM 24.1 °F 15.2 °F 18.0 °F 77% 30.10 in 10.0 mi West 8.1 mph - N/A   Clear
6:56 AM 25.0 °F 18.1 °F 19.0 °F 78% 30.11 in 10.0 mi WSW 5.8 mph - N/A   Clear
7:56 AM 28.0 °F 17.5 °F 21.0 °F 75% 30.10 in 10.0 mi WSW 12.7 mph - N/A   Clear
8:56 AM 28.9 °F 21.1 °F 21.9 °F 75% 30.10 in 3.0 mi WSW 8.1 mph 17.3 mph 0.00 in Snow Light Snow
9:01 AM 28.4 °F 18.0 °F 23.0 °F 80% 30.03 in 1.8 mi SW 12.7 mph 18.4 mph 0.00 in Snow Light Snow
9:08 AM 30.2 °F 21.3 °F 23.0 °F 75% 30.03 in 3.0 mi WSW 10.4 mph 18.4 mph 0.00 in Snow Light Snow
9:56 AM 30.9 °F 21.2 °F 21.9 °F 69% 30.08 in 10.0 mi West 12.7 mph 24.2 mph 0.00 in   Overcast
10:56 AM 33.1 °F 22.2 °F 21.9 °F 64% 30.08 in 10.0 mi West 17.3 mph 27.6 mph N/A   Overcast
11:56 AM 33.1 °F 21.5 °F 21.0 °F 61% 30.10 in 9.0 mi NW 19.6 mph 43.7 mph 0.00 in   Overcast
12:10 PM 30.2 °F 16.5 °F 23.0 °F 75% 30.05 in 2.0 mi WNW 24.2 mph 31.1 mph 0.00 in Snow Light Snow
12:16 PM 30.2 °F 17.8 °F 23.0 °F 75% 30.04 in 0.8 mi WNW 19.6 mph 31.1 mph 0.00 in Snow Light Snow
12:25 PM 32.0 °F 21.6 °F 24.8 °F 75% 30.04 in 2.5 mi WNW 15.0 mph 28.8 mph 0.00 in Snow Light Snow
12:32 PM 32.0 °F 18.6 °F 23.0 °F 69% 30.04 in 9.0 mi WNW 25.3 mph 32.2 mph 0.00 in   Overcast
12:46 PM 30.2 °F 17.4 °F 21.2 °F 69% 30.05 in 10.0 mi NW 20.7 mph 31.1 mph 0.00 in   Overcast
12:56 PM 30.9 °F 18.1 °F 19.9 °F 64% 30.12 in 10.0 mi WNW 21.9 mph 32.2 mph 0.00 in   Mostly Cloudy
1:56 PM 32.0 °F 18.9 °F 17.1 °F 54% 30.13 in 10.0 mi West 24.2 mph 44.9 mph N/A   Mostly Cloudy
2:56 PM 33.1 °F 19.3 °F 17.1 °F 52% 30.15 in 10.0 mi WNW 28.8 mph 41.4 mph N/A   Mostly Cloudy
3:56 PM 28.9 °F 13.5 °F 19.0 °F 67% 30.20 in 4.0 mi WNW 29.9 mph 43.7 mph 0.00 in Snow Light Snow
4:11 PM 28.4 °F 14.1 °F 19.4 °F 69% 30.13 in 1.2 mi WNW 24.2 mph 38.0 mph 0.00 in Snow Light Snow
4:17 PM 28.4 °F 15.4 °F 21.2 °F 74% 30.13 in 0.8 mi WNW 19.6 mph 32.2 mph 0.00 in Snow Light Snow
4:21 PM 28.4 °F 15.4 °F 21.2 °F 74% 30.13 in 2.0 mi WNW 19.6 mph 29.9 mph 0.00 in Snow Light Snow
4:28 PM 28.4 °F 15.8 °F 19.4 °F 69% 30.13 in 9.0 mi WNW 18.4 mph 31.1 mph 0.00 in   Scattered Clouds
4:36 PM 28.4 °F 13.8 °F 19.4 °F 69% 30.14 in 2.5 mi WNW 25.3 mph 33.4 mph 0.00 in Snow Light Snow
4:43 PM 26.6 °F 13.1 °F 19.4 °F 74% 30.14 in 1.0 mi WNW 19.6 mph 33.4 mph 0.00 in Snow Light Snow
4:56 PM 27.0 °F 12.8 °F 21.0 °F 78% 30.23 in 0.8 mi WNW 21.9 mph 36.8 mph 0.00 in Snow Light Snow
5:05 PM 26.6 °F 11.7 °F 19.4 °F 74% 30.15 in 1.0 mi WNW 24.2 mph 33.4 mph 0.00 in Snow Light Snow
5:11 PM 26.6 °F 12.4 °F 19.4 °F 74% 30.15 in 3.0 mi WNW 21.9 mph 34.5 mph 0.00 in Snow Light Snow
5:23 PM 26.6 °F 12.0 °F 19.4 °F 74% 30.16 in 1.5 mi WNW 23.0 mph 29.9 mph 0.00 in Snow Light Snow
5:35 PM 26.6 °F 13.8 °F 21.2 °F 80% 30.17 in 0.5 mi WNW 17.3 mph 27.6 mph 0.00 in Snow Snow
5:42 PM 26.6 °F 12.4 °F 17.6 °F 69% 30.16 in 2.5 mi WNW 21.9 mph 31.1 mph 0.00 in Snow Light Snow
5:46 PM 26.6 °F 13.8 °F 17.6 °F 69% 30.17 in 8.0 mi WNW 17.3 mph 31.1 mph 0.00 in   Mostly Cloudy
5:56 PM 26.1 °F 12.7 °F 18.0 °F 71% 30.27 in 10.0 mi West 18.4 mph 26.5 mph 0.00 in   Mostly Cloudy
6:12 PM 24.8 °F 10.3 °F 19.4 °F 80% 30.19 in 1.8 mi WNW 20.7 mph 31.1 mph 0.00 in Snow Light Snow
6:21 PM 24.8 °F 11.5 °F 17.6 °F 74% 30.19 in 2.0 mi WNW 17.3 mph 29.9 mph 0.00 in Snow Light Snow
6:29 PM 24.8 °F 11.1 °F 17.6 °F 74% 30.19 in 9.0 mi WNW 18.4 mph 28.8 mph 0.00 in Snow Light Snow
6:47 PM 24.8 °F 11.9 °F 17.6 °F 74% 30.21 in 2.5 mi NW 16.1 mph 27.6 mph 0.00 in Snow Light Snow
6:56 PM 24.1 °F 10.6 °F 19.0 °F 81% 30.30 in 1.5 mi WNW 17.3 mph 23.0 mph 0.00 in Snow Light Snow
7:01 PM 24.8 °F 11.1 °F 17.6 °F 74% 30.21 in 3.0 mi WNW 18.4 mph 25.3 mph 0.00 in Snow Light Snow
7:16 PM 24.8 °F 14.0 °F 19.4 °F 80% 30.22 in 2.5 mi NW 11.5 mph - 0.00 in Snow Light Snow
7:19 PM 24.8 °F 12.9 °F 19.4 °F 80% 30.22 in 1.8 mi NW 13.8 mph 23.0 mph 0.00 in Snow Light Snow
7:32 PM 23.0 °F 9.2 °F 15.8 °F 74% 30.23 in 3.0 mi NW 17.3 mph 40.3 mph 0.00 in Snow Light Snow
7:53 PM 23.0 °F 8.7 °F 15.8 °F 74% 30.23 in 9.0 mi NW 18.4 mph 23.0 mph 0.00 in   Overcast
7:56 PM 23.0 °F 9.6 °F 14.0 °F 68% 30.32 in 9.0 mi NW 16.1 mph 23.0 mph 0.00 in   Overcast
8:56 PM 21.9 °F 8.2 °F 12.9 °F 68% 30.34 in 6.0 mi NW 16.1 mph 21.9 mph 0.00 in Snow Light Snow
8:59 PM 21.2 °F 6.8 °F 14.0 °F 74% 30.25 in 2.5 mi NW 17.3 mph 23.0 mph 0.00 in Snow Light Snow
9:04 PM 21.2 °F 7.3 °F 15.8 °F 80% 30.25 in 1.2 mi NW 16.1 mph 25.3 mph 0.00 in Snow Light Snow
9:18 PM 21.2 °F 6.8 °F 15.8 °F 80% 30.25 in 1.5 mi NW 17.3 mph 25.3 mph 0.00 in Snow Light Snow
9:25 PM 21.2 °F 7.8 °F 15.8 °F 80% 30.25 in 3.0 mi NW 15.0 mph 25.3 mph 0.00 in Snow Light Snow
9:56 PM 21.0 °F 5.0 °F 12.0 °F 68% 30.34 in 9.0 mi WNW 21.9 mph 34.5 mph 0.00 in Snow Light Snow
10:44 PM 21.2 °F 4.5 °F 10.4 °F 63% 30.26 in 8.0 mi NW 24.2 mph 34.5 mph 0.00 in Snow Light Snow
10:56 PM 19.9 °F 6.2 °F 10.0 °F 65% 30.35 in 9.0 mi NW 15.0 mph 29.9 mph 0.00 in   Overcast
11:54 PM 19.4 °F 4.1 °F 12.2 °F 74% 30.28 in 3.0 mi NW 18.4 mph 27.6 mph 0.00 in Snow Light Snow
11:56 PM 19.9 °F 5.2 °F 12.0 °F 71% 30.36 in 3.0 mi NW 17.3 mph 27.6 mph 0.00 in Snow Light Snow